TimeCDT,TemperatureF,Dew PointF,Humidity,Sea Level PressureIn,VisibilityMPH,Wind Direction,Wind SpeedMPH,Gust SpeedMPH,PrecipitationIn,Events,Conditions,WindDirDegrees,DateUTC
12:53 AM,61.0,55.9,83,29.83,10.0,South,4.6,-,N/A,,Clear,190,2013-05-16 05:53:00
1:53 AM,59.0,55.9,90,29.82,10.0,South,4.6,-,N/A,,Clear,170,2013-05-16 06:53:00
2:53 AM,62.1,57.0,84,29.82,10.0,Calm,Calm,-,N/A,,Clear,0,2013-05-16 07:53:00
3:53 AM,60.1,57.0,90,29.81,9.0,SE,5.8,-,N/A,,Scattered Clouds,140,2013-05-16 08:53:00
4:03 AM,60.8,59.0,94,29.83,3.0,SSE,8.1,-,N/A,,Mostly Cloudy,150,2013-05-16 09:03:00
4:05 AM,60.8,59.0,94,29.83,1.8,SE,6.9,-,N/A,,Mostly Cloudy,140,2013-05-16 09:05:00
4:14 AM,60.8,60.8,100,29.84,0.2,SSE,8.1,-,0.00,Fog-Rain,Light Rain,150,2013-05-16 09:14:00
4:53 AM,62.1,61.0,96,29.81,0.2,SSE,8.1,-,0.00,Fog,Fog,150,2013-05-16 09:53:00
5:11 AM,62.6,60.8,94,29.84,0.2,SSE,5.8,-,N/A,Fog,Fog,150,2013-05-16 10:11:00
5:34 AM,62.6,62.6,100,29.84,0.8,SSE,9.2,-,N/A,,Mist,150,2013-05-16 10:34:00
5:45 AM,62.6,60.8,94,29.84,1.0,SE,8.1,-,N/A,,Mist,140,2013-05-16 10:45:00
5:53 AM,63.0,61.0,93,29.82,0.8,SSE,5.8,-,N/A,,Mist,160,2013-05-16 10:53:00
6:37 AM,62.6,60.8,94,29.87,0.2,Calm,Calm,-,N/A,Fog,Fog,0,2013-05-16 11:37:00
6:53 AM,63.0,61.0,93,29.86,0.2,Calm,Calm,-,N/A,Fog,Fog,0,2013-05-16 11:53:00
7:28 AM,62.6,60.8,94,29.89,0.5,Calm,Calm,-,N/A,Fog,Fog,0,2013-05-16 12:28:00
7:51 AM,62.6,60.8,94,29.89,1.0,Calm,Calm,-,N/A,,Overcast,0,2013-05-16 12:51:00
7:53 AM,63.0,61.0,93,29.87,1.0,Calm,Calm,-,N/A,,Overcast,0,2013-05-16 12:53:00
8:32 AM,64.4,62.6,94,29.89,2.0,South,3.5,-,N/A,,Overcast,180,2013-05-16 13:32:00
8:53 AM,64.0,61.0,90,29.87,2.5,Calm,Calm,-,N/A,,Overcast,0,2013-05-16 13:53:00
9:27 AM,64.4,62.6,94,29.89,2.5,ESE,8.1,-,N/A,,Overcast,120,2013-05-16 14:27:00
9:53 AM,66.0,61.0,84,29.87,2.5,SE,8.1,-,N/A,,Haze,140,2013-05-16 14:53:00
10:00 AM,66.2,60.8,83,29.89,8.0,SE,6.9,-,N/A,,Overcast,130,2013-05-16 15:00:00
10:09 AM,66.2,60.8,83,29.89,9.0,SE,6.9,-,N/A,,Overcast,130,2013-05-16 15:09:00
10:35 AM,69.8,60.8,73,29.88,10.0,SSE,4.6,-,N/A,,Mostly Cloudy,160,2013-05-16 15:35:00
10:53 AM,69.1,61.0,75,29.86,10.0,Calm,Calm,-,N/A,,Overcast,0,2013-05-16 15:53:00
11:53 AM,72.0,60.1,66,29.86,10.0,South,6.9,-,N/A,,Mostly Cloudy,180,2013-05-16 16:53:00
12:53 PM,75.9,61.0,60,29.85,10.0,South,10.4,-,N/A,,Mostly Cloudy,170,2013-05-16 17:53:00
1:00 PM,75.2,60.8,61,29.87,10.0,South,8.1,-,N/A,,Mostly Cloudy,170,2013-05-16 18:00:00
1:53 PM,75.2,60.8,61,29.86,10.0,SSE,10.4,-,N/A,,Mostly Cloudy,150,2013-05-16 18:53:00
2:53 PM,78.1,61.0,56,29.83,10.0,South,8.1,-,N/A,,Overcast,180,2013-05-16 19:53:00
3:53 PM,78.1,59.0,52,29.80,10.0,ESE,6.9,-,N/A,,Partly Cloudy,120,2013-05-16 20:53:00
4:53 PM,80.6,59.0,48,29.80,10.0,South,9.2,-,N/A,,Partly Cloudy,180,2013-05-16 21:53:00
5:53 PM,79.0,59.0,50,29.77,10.0,SE,12.7,-,N/A,,Clear,130,2013-05-16 22:53:00
6:53 PM,78.1,59.0,52,29.75,10.0,SE,11.5,-,N/A,,Partly Cloudy,140,2013-05-16 23:53:00
7:53 PM,73.9,59.0,59,29.77,10.0,SE,5.8,-,N/A,,Clear,130,2013-05-17 00:53:00
8:53 PM,68.0,59.0,73,29.80,10.0,SE,4.6,-,N/A,,Clear,140,2013-05-17 01:53:00
9:53 PM,66.9,59.0,76,29.83,10.0,SE,4.6,-,N/A,,Clear,140,2013-05-17 02:53:00
10:53 PM,66.9,59.0,76,29.86,10.0,SW,4.6,-,N/A,,Clear,220,2013-05-17 03:53:00
11:53 PM,63.0,57.9,84,29.84,10.0,SSE,8.1,-,N/A,,Clear,150,2013-05-17 04:53:00